• In Austria
  • List of Countries
  • For 7 days
  • Water Temperature
  • Satellite Maps
  • Weather Map
  • News
  • Weather Widgets
  • user-avatar
    Login

    Hourly Weather Bansko

    Today, 20 July, Friday

    Time Temperature Precipitation Wind Pressure Humidity
    00:00 +18°C° 0 mm 2 mps 718 mmHg 89%
    01:00 +18°C° 0 mm 2 mps 718 mmHg 90%
    02:00 +19°C° 0 mm 1 mps 718 mmHg 91%
    03:00 +18°C° 0 mm 1 mps 718 mmHg 92%
    04:00 +18°C° 0 mm 1 mps 718 mmHg 92%
    05:00 +18°C° 0 mm 1 mps 718 mmHg 93%
    06:00 +19°C° 0 mm 2 mps 718 mmHg 85%
    07:00 +21°C° 0 mm 2 mps 718 mmHg 78%
    08:00 +24°C° 0 mm 2 mps 718 mmHg 70%
    09:00 +25°C° 0 mm 2 mps 719 mmHg 64%
    10:00 +26°C° 0 mm 3 mps 719 mmHg 58%
    11:00 +28°C° 0 mm 3 mps 719 mmHg 53%
    12:00 +29°C° 0 mm 3 mps 719 mmHg 50%
    13:00 +30°C° 0 mm 3 mps 719 mmHg 47%
    14:00 +30°C° 0 mm 3 mps 719 mmHg 44%
    15:00 +30°C° 0 mm 3 mps 718 mmHg 45%
    16:00 +30°C° 0 mm 3 mps 718 mmHg 45%
    17:00 +30°C° 0 mm 3 mps 718 mmHg 46%
    18:00 +28°C° 0 mm 3 mps 718 mmHg 53%
    19:00 +26°C° 0 mm 2 mps 718 mmHg 61%
    20:00 +24°C° 0 mm 2 mps 718 mmHg 69%
    21:00 +21°C° 0 mm 2 mps 718 mmHg 73%
    22:00 +20°C° 0 mm 2 mps 719 mmHg 78%
    23:00 +20°C° 0 mm 1 mps 719 mmHg 83%

    Tomorrow, 21 July, Saturday

    Time Temperature Precipitation Wind Pressure Humidity
    00:00 +20°C° 0 mm 1 mps 719 mmHg 84%
    01:00 +19°C° 0 mm 1 mps 719 mmHg 85%
    02:00 +18°C° 0 mm 1 mps 719 mmHg 86%
    03:00 +18°C° 0 mm 1 mps 719 mmHg 85%
    04:00 +18°C° 0 mm 1 mps 719 mmHg 85%
    05:00 +16°C° 0 mm 1 mps 719 mmHg 84%
    06:00 +20°C° 0 mm 1 mps 719 mmHg 74%
    07:00 +22°C° 0 mm 1 mps 719 mmHg 65%
    08:00 +25°C° 0 mm 1 mps 720 mmHg 55%
    09:00 +27°C° 0 mm 2 mps 720 mmHg 48%
    10:00 +29°C° 0 mm 2 mps 720 mmHg 41%
    11:00 +30°C° 0 mm 2 mps 720 mmHg 34%
    12:00 +31°C° 0 mm 3 mps 719 mmHg 31%
    13:00 +33°C° 0 mm 3 mps 719 mmHg 29%
    14:00 +34°C° 0 mm 3 mps 719 mmHg 26%
    15:00 +34°C° 0 mm 3 mps 719 mmHg 27%
    16:00 +34°C° 0 mm 3 mps 719 mmHg 27%
    17:00 +34°C° 0 mm 3 mps 718 mmHg 27%
    18:00 +30°C° 0 mm 2 mps 718 mmHg 34%
    19:00 +27°C° 0 mm 2 mps 718 mmHg 41%
    20:00 +25°C° 0 mm 2 mps 718 mmHg 48%
    21:00 +24°C° 0 mm 1 mps 718 mmHg 49%
    22:00 +23°C° 0 mm 1 mps 719 mmHg 50%
    23:00 +22°C° 0 mm 1 mps 719 mmHg 51%

    Day after tomorrow, 22 July, Sunday

    Time Temperature Precipitation Wind Pressure Humidity
    00:00 +21°C° 0 mm 1 mps 719 mmHg 52%
    01:00 +21°C° 0 mm 1 mps 719 mmHg 53%
    02:00 +21°C° 0 mm 1 mps 719 mmHg 54%
    03:00 +21°C° 0 mm 1 mps 719 mmHg 55%
    04:00 +21°C° 0 mm 1 mps 719 mmHg 57%
    05:00 +20°C° 0 mm 1 mps 718 mmHg 59%
    06:00 +23°C° 0 mm 1 mps 719 mmHg 54%
    07:00 +26°C° 0 mm 1 mps 719 mmHg 49%
    08:00 +28°C° 0 mm 1 mps 719 mmHg 43%
    09:00 +30°C° 0 mm 1 mps 719 mmHg 38%
    10:00 +32°C° 0 mm 1 mps 719 mmHg 33%
    11:00 +35°C° 0 mm 2 mps 719 mmHg 27%
    12:00 +36°C° 0 mm 2 mps 718 mmHg 26%
    13:00 +36°C° 0 mm 2 mps 718 mmHg 24%
    14:00 +37°C° 0 mm 2 mps 718 mmHg 23%
    15:00 +37°C° 0 mm 2 mps 717 mmHg 24%
    16:00 +37°C° 0 mm 2 mps 717 mmHg 26%
    17:00 +36°C° 0 mm 2 mps 717 mmHg 27%
    18:00 +34°C° 0.1 mm 2 mps 716 mmHg 33%
    19:00 +30°C° 0.1 mm 2 mps 716 mmHg 40%
    20:00 +27°C° 0.1 mm 1 mps 716 mmHg 46%
    21:00 +26°C° 0 mm 1 mps 716 mmHg 51%
    22:00 +24°C° 0 mm 1 mps 716 mmHg 56%
    23:00 +23°C° 0 mm 1 mps 716 mmHg 61%

    23 July, Monday

    Time Temperature Precipitation Wind Pressure Humidity
    00:00 +22°C° 0 mm 1 mps 716 mmHg 62%
    01:00 +22°C° 0 mm 1 mps 716 mmHg 63%
    02:00 +21°C° 0 mm 1 mps 716 mmHg 64%
    03:00 +21°C° 0 mm 1 mps 716 mmHg 64%
    04:00 +21°C° 0 mm 1 mps 716 mmHg 64%
    05:00 +21°C° 0 mm 1 mps 716 mmHg 64%
    06:00 +23°C° 0 mm 1 mps 716 mmHg 57%
    07:00 +26°C° 0 mm 1 mps 716 mmHg 51%
    08:00 +28°C° 0 mm 1 mps 716 mmHg 44%
    09:00 +30°C° 0 mm 1 mps 716 mmHg 39%
    10:00 +32°C° 0 mm 2 mps 715 mmHg 34%
    11:00 +35°C° 0 mm 2 mps 715 mmHg 29%
    12:00 +35°C° 0 mm 3 mps 715 mmHg 28%
    13:00 +36°C° 0 mm 3 mps 714 mmHg 27%
    14:00 +36°C° 0 mm 3 mps 714 mmHg 25%
    15:00 +34°C° 0.8 mm 4 mps 713 mmHg 35%
    16:00 +32°C° 0.8 mm 4 mps 713 mmHg 45%
    17:00 +28°C° 0.8 mm 4 mps 712 mmHg 55%
    18:00 +27°C° 0.8 mm 3 mps 712 mmHg 62%
    19:00 +25°C° 0.8 mm 2 mps 713 mmHg 69%
    20:00 +23°C° 0.8 mm 1 mps 713 mmHg 76%
    21:00 +22°C° 0.8 mm 1 mps 713 mmHg 79%
    22:00 +22°C° 0.8 mm 1 mps 713 mmHg 81%
    23:00 +21°C° 0.8 mm 1 mps 713 mmHg 84%

    24 July, Tuesday

    Time Temperature Precipitation Wind Pressure Humidity
    00:00 +21°C° 0.2 mm 1 mps 713 mmHg 84%
    01:00 +21°C° 0.2 mm 1 mps 713 mmHg 85%
    02:00 +20°C° 0.2 mm 1 mps 713 mmHg 85%
    03:00 +19°C° 0 mm 2 mps 713 mmHg 86%
    04:00 +18°C° 0 mm 2 mps 712 mmHg 88%
    05:00 +18°C° 0 mm 2 mps 712 mmHg 89%
    06:00 +19°C° 0.1 mm 2 mps 713 mmHg 85%
    07:00 +21°C° 0.1 mm 2 mps 713 mmHg 80%
    08:00 +23°C° 0.1 mm 2 mps 714 mmHg 76%
    09:00 +24°C° 0.4 mm 2 mps 714 mmHg 69%
    10:00 +26°C° 0.4 mm 2 mps 714 mmHg 62%
    11:00 +27°C° 0.4 mm 3 mps 714 mmHg 56%
    12:00 +28°C° 0.4 mm 3 mps 714 mmHg 53%
    13:00 +29°C° 0.4 mm 3 mps 714 mmHg 50%
    14:00 +29°C° 0.4 mm 3 mps 714 mmHg 47%
    15:00 +29°C° 0.3 mm 3 mps 714 mmHg 50%
    16:00 +28°C° 0.3 mm 2 mps 714 mmHg 52%
    17:00 +28°C° 0.3 mm 2 mps 714 mmHg 55%
    18:00 +26°C° 0.3 mm 2 mps 714 mmHg 62%
    19:00 +24°C° 0.3 mm 2 mps 714 mmHg 69%
    20:00 +21°C° 0.3 mm 2 mps 714 mmHg 76%
    21:00 +22°C° 0.1 mm 1 mps 714 mmHg 79%
    22:00 +21°C° 0.1 mm 1 mps 714 mmHg 82%
    23:00 +20°C° 0.1 mm 1 mps 715 mmHg 86%

    25 July, Wednesday

    Time Temperature Precipitation Wind Pressure Humidity
    00:00 +20°C° 0.3 mm 1 mps 715 mmHg 86%
    01:00 +20°C° 0.3 mm 1 mps 715 mmHg 87%
    02:00 +20°C° 0.3 mm 1 mps 715 mmHg 88%
    03:00 +20°C° 0 mm 1 mps 715 mmHg 89%
    04:00 +19°C° 0 mm 1 mps 715 mmHg 90%
    05:00 +19°C° 0 mm 1 mps 715 mmHg 91%
    06:00 +21°C° 0 mm 1 mps 716 mmHg 86%
    07:00 +21°C° 0 mm 2 mps 716 mmHg 81%
    08:00 +23°C° 0 mm 2 mps 716 mmHg 75%
    09:00 +25°C° 0.1 mm 2 mps 716 mmHg 69%
    10:00 +26°C° 0.1 mm 2 mps 716 mmHg 63%
    11:00 +28°C° 0.1 mm 2 mps 717 mmHg 56%
    12:00 +28°C° 0.2 mm 2 mps 716 mmHg 54%
    13:00 +29°C° 0.2 mm 2 mps 716 mmHg 52%
    14:00 +30°C° 0.2 mm 2 mps 716 mmHg 50%
    15:00 +30°C° 0.4 mm 2 mps 716 mmHg 51%
    16:00 +29°C° 0.4 mm 2 mps 716 mmHg 53%
    17:00 +29°C° 0.4 mm 2 mps 716 mmHg 54%
    18:00 +27°C° 0.4 mm 2 mps 716 mmHg 61%
    19:00 +25°C° 0.4 mm 2 mps 716 mmHg 67%
    20:00 +24°C° 0.4 mm 1 mps 716 mmHg 74%
    21:00 +23°C° 0.3 mm 1 mps 717 mmHg 77%
    22:00 +22°C° 0.3 mm 1 mps 717 mmHg 81%
    23:00 +21°C° 0.3 mm 1 mps 717 mmHg 85%
    Show more